Regional Weather Roundup
Issued by NWS Mobile, AL

Home | Current Version | Previous Version | Text Only | Print | Product List | Glossary On
Versions: 1 2 3 4 5 6 7 8 9 10 11 12 13 14 15 16 17 18 19 20 21 22 23 24 25 26 27 28 29 30 31 32 33 34 35 36 37 38 39 40 41 42 43 44 45 46 47 48 49 50
000
ASUS44 KMOB 290517
RWRMOB
REGIONAL WEATHER ROUNDUP
NATIONAL WEATHER SERVICE MOBILE AL
1200 AM CDT WED JUL 29 2015

ALZ061>064-290600-
COASTAL ALABAMA


CITY           SKY/WX    TMP DP  RH WIND       PRES   REMARKS
MOBILE REG APT CLEAR     79  75  87 W3        30.01S
BROOKLEY FIELD CLEAR     83  73  72 W5        30.01R
GULF SHORES    MOCLDY    83  75  76 CALM      29.99F

$$

ALZ051>060-290600-
INTERIOR SOUTHWEST AND SOUTH CENTRAL ALABAMA


CITY           SKY/WX    TMP DP  RH WIND       PRES   REMARKS
ANDALUSIA/OPP  PTCLDY    81  75  82 CALM      29.99R
EVERGREEN      CLEAR     76  74  93 CALM      30.00R
FLORALA        PTCLDY    78  73  84 CALM      30.01R
GREENVILLE     FAIR      77  74  90 CALM      30.00R

$$

FLZ001>006-290600-
WESTERN FLORIDA PANHANDLE


CITY           SKY/WX    TMP DP  RH WIND       PRES   REMARKS
CRESTVIEW      PTCLDY    78  78 100 CALM      30.00S FOG
DESTIN         PTCLDY    85  77  77 VRB5      29.98S HX  95
DUKE FIELD     PTCLDY    81  73  77 W3        29.98S
MARY ESTHER    PTCLDY    84  74  73 W2        29.97S
MILTON         PTCLDY    84  76  76 CALM      29.99S
PENSACOLA      MOCLDY    78  74  87 W7        29.98F
NAS PENSACOLA  MOCLDY    77  72  84 NW5       29.98F
VALPARAISO     MOCLDY    83  76  80 NW2       29.98S

$$

...MARINE OBSERVATIONS...

STATION/POSITION TIME  SKY/WX   TEMP    WIND        PRES    VSBY
                                AIR SEA DIR/SP/G
                 (UTC)          (F)     (DEG/KT/KT) (MB)    (MI)
PASCAGOULA       0400            88     250/  5/  7 1015.6R
PETIT BOIS ISL   0400            88     260/ 10/ 11 1016.2R
E DAUPHIN ISLAND 0500            87     250/  6/  7 1015.3F
MIDDLE BAY LIGHT 0400            87     270/ 12     1015.2R
USCG MOBILE BAY  0400            85 85  280/  5/  6 1014.6R
STATE DOCKS      0400            87 88              1015.4R
MEAHER PARK      0500            86     320/  1     1014.9S
12 S ORANGE BCH  0450            83 85   30/ 12/ 14 1015.1R
WVE H/P(F/S)=  1/ 3

PENSACOLA BAY    0400            81 87  250/ 12/ 15 1015.6F
64 S DAUPHIN ISL 0450            86 88  270/  8/ 10 1016.3R
WVE H/P(F/S)=  1

67 S FORT MORGAN 0430            85     260/  6     1015.9R
115 SE PENSACOLA 0450            86 87  260/ 10/ 12 1015.8S
WVE H/P(F/S)=  1/ 4

MID GULF/42001   0450            85 86  230/  4/  6 1017.5F
WVE H/P(F/S)=  1/ 5

EAST GULF/42003  0450            84 85  250/  6/  8 1016.1F
WVE H/P(F/S)=  1/ 9


$$

...NEARBY LOCATIONS

CITY           SKY/WX    TMP DP  RH WIND       PRES   REMARKS
GULFPORT       CLEAR     79  74  84 CALM      29.99S
BILOXI         CLEAR     82  74  75 CALM      29.99S
PASCAGOULA     CLEAR     77  76  96 CALM      29.99S
HATTIESBURG    CLEAR     80  76  87 N3        30.01R
LAUREL         CLEAR     79  72  78 CALM      30.03R
MERIDIAN       CLEAR     76  74  93 CALM      30.01R
MERIDIAN NAS   CLEAR     79  74  84 W3        30.01R
MONTGOMERY     PTCLDY    79  74  84 CALM      30.00R
MAXWELL AFB    PTCLDY    78  76  94 SW1       29.99R
TROY           MOCLDY    76  74  93 CALM      30.01R
FORT RUCKER    PTCLDY    78  73  84 CALM      29.97S
DALEVILLE      PTCLDY    78  74  88 SW1       29.98S
DOTHAN         PTCLDY    81  74  79 CALM      30.02R

$$

...OTHER SURROUNDING LOCATIONS...

CITY           SKY/WX    TMP DP  RH WIND       PRES   REMARKS
BIRMINGHAM     PTCLDY    81  74  79 CALM      30.03S
TUSCALOOSA     PTCLDY    80  77  90 CALM      30.00R
COLUMBUS GA    CLOUDY    80  74  81 W3        29.99R
PANAMA CITY    NOT AVBL
TALLAHASSEE    PTCLDY    84  77  79 CALM      29.96S
BATON ROUGE    CLEAR     82  73  74 SW7       30.00R
NEW ORLEANS    PTCLDY    83  73  72 SW9       30.01R
SLIDELL        CLEAR     79  76  90 CALM      30.00R
JACKSON        CLEAR     81  74  79 NE3       30.01R
MCCOMB         CLEAR     78  75  90 CALM      30.02S

$$

...SURROUNDING MARINE OBSERVATIONS...

STATION/POSITION TIME  SKY/WX   TEMP    WIND        PRES    VSBY
                                AIR SEA DIR/SP/G
                 (UTC)          (F)     (DEG/KT/KT) (MB)    (MI)
WAVELAND         0400            84 87  250/  2/  2 1016.2R
PASCAGOULA RGN A 0400            87     270/  6/  9 1015.2R
PASCAGOULA PORT  0400               86                N/A
GRAND ISLE       0400            86 90  220/  2/  3 1016.4R
SOUTHWEST PASS   0500            86     240/  2/  3 1016.8R
PILOT STATION E  0400            86 87  230/  4/  5 1016.8R
SHELL BEACH      0400            85 90  190/  5/  5 1015.6R
PANAMA CITY      0400            86 87  290/  6/  8 1014.6S
APALACHICOLA     0400            84 89  290/  4/  5 1015.0R
TYNDALL TOWER C  0500            85     270/ 11/ 12 1014.9F
S APLCHCLA/42036 0450            85 85  270/ 14/ 16 1015.1F
WVE H/P(F/S)=  2/ 4


$$



USA.gov is the U.S. government's official web portal to all federal, state and local government web resources and services.